[Date Prev][Date Next][Thread Prev][Thread Next] - [Date Index][Thread Index][Author Index]

2 Line ISS Keps 2-11



ISS
1 25544U 98067A   05040.86818061 +.00030818 +00000-0 +24673-3 0 07822
2 25544 051.6482 191.9780 0009531 079.9465 079.6305 15.70727217355665
----
Via the sarex mailing list at AMSAT.ORG courtesy of AMSAT-NA.
To unsubscribe, send "unsubscribe sarex" to Majordomo@amsat.org



AMSAT Top AMSAT Home